Time,TemperatureF,DewpointF,PressureIn,WindDirection,WindDirectionDegrees,WindSpeedMPH,WindSpeedGustMPH,Humidity,HourlyPrecipIn,Conditions,Clouds,dailyrainin,SoftwareType,DateUTC
2013-05-07 00:01:00,59.1,47.3,29.75,WSW,254,7.0,7.0,65,0.00,,,0.00,Wunderground v.1.15,2013-05-07 04:01:00,
2013-05-07 00:06:00,59.1,47.7,29.75,WSW,254,7.0,8.0,66,0.00,,,0.00,Wunderground v.1.15,2013-05-07 04:06:00,
2013-05-07 00:11:00,59.1,47.7,29.75,West,260,7.0,7.0,66,0.00,,,0.00,Wunderground v.1.15,2013-05-07 04:11:00,
2013-05-07 00:16:00,58.9,48.0,29.76,West,263,7.0,7.0,67,0.00,,,0.00,Wunderground v.1.15,2013-05-07 04:16:00,
2013-05-07 00:21:00,58.9,48.0,29.76,West,264,7.0,8.0,67,0.00,,,0.00,Wunderground v.1.15,2013-05-07 04:21:00,
2013-05-07 00:26:00,58.8,48.3,29.76,West,265,7.0,8.0,68,0.00,,,0.00,Wunderground v.1.15,2013-05-07 04:26:00,
2013-05-07 00:31:00,58.6,48.5,29.76,West,267,6.0,8.0,69,0.00,,,0.00,Wunderground v.1.15,2013-05-07 04:31:00,
2013-05-07 00:36:00,58.5,48.4,29.76,West,261,6.0,8.0,69,0.00,,,0.00,Wunderground v.1.15,2013-05-07 04:36:00,
2013-05-07 00:41:00,58.6,48.5,29.76,West,263,6.0,7.0,69,0.00,,,0.00,Wunderground v.1.15,2013-05-07 04:41:00,
2013-05-07 00:51:00,58.3,48.6,29.76,West,271,4.0,4.0,70,0.00,,,0.00,Wunderground v.1.15,2013-05-07 04:51:00,
2013-05-07 00:56:00,58.3,48.6,29.76,West,271,2.0,4.0,70,0.00,,,0.00,Wunderground v.1.15,2013-05-07 04:56:00,
2013-05-07 01:01:00,58.3,48.9,29.76,West,271,1.0,1.0,71,0.00,,,0.00,Wunderground v.1.15,2013-05-07 05:01:00,
2013-05-07 01:06:00,58.2,48.8,29.76,West,271,1.0,4.0,71,0.00,,,0.00,Wunderground v.1.15,2013-05-07 05:06:00,
2013-05-07 01:11:00,58.2,48.8,29.76,West,271,2.0,2.0,71,0.00,,,0.00,Wunderground v.1.15,2013-05-07 05:11:00,
2013-05-07 01:21:00,58.0,49.0,29.76,West,271,0.0,4.0,72,0.00,,,0.00,Wunderground v.1.15,2013-05-07 05:21:00,
2013-05-07 01:26:00,57.8,48.8,29.76,West,271,1.0,4.0,72,0.00,,,0.00,Wunderground v.1.15,2013-05-07 05:26:00,
2013-05-07 01:31:00,57.7,49.1,29.76,West,271,1.0,1.0,73,0.00,,,0.00,Wunderground v.1.15,2013-05-07 05:31:00,
2013-05-07 01:36:00,57.4,48.8,29.76,West,271,1.0,4.0,73,0.00,,,0.00,Wunderground v.1.15,2013-05-07 05:36:00,
2013-05-07 01:41:00,57.3,49.1,29.76,West,271,0.0,4.0,74,0.00,,,0.00,Wunderground v.1.15,2013-05-07 05:41:00,
2013-05-07 01:46:00,57.1,48.9,29.76,West,271,0.0,4.0,74,0.00,,,0.00,Wunderground v.1.15,2013-05-07 05:46:00,
2013-05-07 01:56:00,57.0,49.2,29.76,West,271,1.0,4.0,75,0.00,,,0.00,Wunderground v.1.15,2013-05-07 05:56:00,
2013-05-07 02:01:00,56.9,49.4,29.76,West,272,1.0,4.0,76,0.00,,,0.00,Wunderground v.1.15,2013-05-07 06:01:00,
2013-05-07 02:06:00,57.1,49.6,29.75,West,276,3.0,4.0,76,0.00,,,0.00,Wunderground v.1.15,2013-05-07 06:06:00,
2013-05-07 02:11:00,57.3,49.4,29.75,West,271,4.0,4.0,75,0.00,,,0.00,Wunderground v.1.15,2013-05-07 06:11:00,
2013-05-07 02:16:00,57.3,49.4,29.75,West,272,4.0,7.0,75,0.00,,,0.00,Wunderground v.1.15,2013-05-07 06:16:00,
2013-05-07 02:26:00,57.2,49.3,29.75,West,269,6.0,7.0,75,0.00,,,0.00,Wunderground v.1.15,2013-05-07 06:26:00,
2013-05-07 02:31:00,56.9,49.4,29.75,WNW,284,5.0,5.0,76,0.00,,,0.00,Wunderground v.1.15,2013-05-07 06:31:00,
2013-05-07 02:36:00,56.7,49.6,29.75,WNW,284,5.0,9.0,77,0.00,,,0.00,Wunderground v.1.15,2013-05-07 06:36:00,
2013-05-07 02:41:00,56.7,49.6,29.75,West,276,6.0,6.0,77,0.00,,,0.00,Wunderground v.1.15,2013-05-07 06:41:00,
2013-05-07 02:46:00,56.5,49.4,29.75,West,259,6.0,6.0,77,0.00,,,0.00,Wunderground v.1.15,2013-05-07 06:46:00,
2013-05-07 02:51:00,56.4,49.6,29.75,West,273,5.0,5.0,78,0.00,,,0.00,Wunderground v.1.15,2013-05-07 06:51:00,
2013-05-07 03:01:00,56.3,49.5,29.75,West,278,3.0,3.0,78,0.00,,,0.00,Wunderground v.1.15,2013-05-07 07:01:00,
2013-05-07 03:06:00,56.4,49.6,29.75,WNW,283,3.0,4.0,78,0.00,,,0.00,Wunderground v.1.15,2013-05-07 07:06:00,
2013-05-07 03:11:00,56.4,49.6,29.76,WNW,283,3.0,4.0,78,0.00,,,0.00,Wunderground v.1.15,2013-05-07 07:11:00,
2013-05-07 03:16:00,56.1,49.7,29.75,WNW,283,2.0,4.0,79,0.00,,,0.00,Wunderground v.1.15,2013-05-07 07:16:00,
2013-05-07 03:21:00,56.0,49.6,29.75,WNW,283,2.0,4.0,79,0.00,,,0.00,Wunderground v.1.15,2013-05-07 07:21:00,
2013-05-07 03:31:00,55.8,49.7,29.76,WNW,283,1.0,1.0,80,0.00,,,0.00,Wunderground v.1.15,2013-05-07 07:31:00,
2013-05-07 03:36:00,55.7,49.6,29.75,WNW,283,0.0,4.0,80,0.00,,,0.00,Wunderground v.1.15,2013-05-07 07:36:00,
2013-05-07 03:41:00,55.6,49.5,29.76,WNW,283,1.0,4.0,80,0.00,,,0.00,Wunderground v.1.15,2013-05-07 07:41:00,
2013-05-07 03:46:00,55.5,49.4,29.76,WNW,283,1.0,4.0,80,0.00,,,0.00,Wunderground v.1.15,2013-05-07 07:46:00,
2013-05-07 03:51:00,55.3,49.6,29.75,WNW,283,1.0,4.0,81,0.00,,,0.00,Wunderground v.1.15,2013-05-07 07:51:00,
2013-05-07 03:56:00,55.1,49.4,29.76,WNW,283,2.0,4.0,81,0.00,,,0.00,Wunderground v.1.15,2013-05-07 07:56:00,
2013-05-07 04:01:00,54.9,49.2,29.76,WNW,283,1.0,4.0,81,0.00,,,0.00,Wunderground v.1.15,2013-05-07 08:01:00,
2013-05-07 04:06:00,54.9,49.5,29.76,WNW,283,0.0,4.0,82,0.00,,,0.00,Wunderground v.1.15,2013-05-07 08:06:00,
2013-05-07 04:11:00,54.9,49.5,29.76,WNW,283,0.0,4.0,82,0.00,,,0.00,Wunderground v.1.15,2013-05-07 08:11:00,
2013-05-07 04:16:00,54.8,49.4,29.76,WNW,283,0.0,4.0,82,0.00,,,0.00,Wunderground v.1.15,2013-05-07 08:16:00,
2013-05-07 04:21:00,54.7,49.3,29.76,WNW,283,0.0,4.0,82,0.00,,,0.00,Wunderground v.1.15,2013-05-07 08:21:00,
2013-05-07 04:26:00,54.6,49.2,29.76,WNW,283,1.0,4.0,82,0.00,,,0.00,Wunderground v.1.15,2013-05-07 08:26:00,
2013-05-07 04:36:00,54.6,49.2,29.76,WNW,283,1.0,4.0,82,0.00,,,0.00,Wunderground v.1.15,2013-05-07 08:36:00,
2013-05-07 04:41:00,54.4,49.0,29.76,WNW,283,1.0,1.0,82,0.00,,,0.00,Wunderground v.1.15,2013-05-07 08:41:00,
2013-05-07 04:46:00,54.3,49.2,29.76,WNW,283,1.0,2.0,83,0.00,,,0.00,Wunderground v.1.15,2013-05-07 08:46:00,
2013-05-07 04:51:00,53.9,48.9,29.76,WNW,283,1.0,1.0,83,0.00,,,0.00,Wunderground v.1.15,2013-05-07 08:51:00,
2013-05-07 04:56:00,53.6,48.9,29.76,WNW,283,0.0,4.0,84,0.00,,,0.00,Wunderground v.1.15,2013-05-07 08:56:00,
2013-05-07 05:06:00,53.1,48.7,29.76,WNW,283,1.0,4.0,85,0.00,,,0.00,Wunderground v.1.15,2013-05-07 09:06:00,
2013-05-07 05:11:00,53.0,48.6,29.76,WNW,283,1.0,1.0,85,0.00,,,0.00,Wunderground v.1.15,2013-05-07 09:11:00,
2013-05-07 05:16:00,52.8,48.7,29.76,WNW,283,1.0,2.0,86,0.00,,,0.00,Wunderground v.1.15,2013-05-07 09:16:00,
2013-05-07 05:21:00,52.9,48.8,29.76,WNW,283,1.0,1.0,86,0.00,,,0.00,Wunderground v.1.15,2013-05-07 09:21:00,
2013-05-07 05:26:00,53.0,48.9,29.76,WNW,283,1.0,2.0,86,0.00,,,0.00,Wunderground v.1.15,2013-05-07 09:26:00,
2013-05-07 05:31:00,53.1,49.0,29.76,WNW,283,1.0,4.0,86,0.00,,,0.00,Wunderground v.1.15,2013-05-07 09:31:00,
2013-05-07 05:41:00,53.2,49.1,29.76,WNW,283,1.0,1.0,86,0.00,,,0.00,Wunderground v.1.15,2013-05-07 09:41:00,
2013-05-07 05:46:00,53.2,49.1,29.76,WNW,283,0.0,4.0,86,0.00,,,0.00,Wunderground v.1.15,2013-05-07 09:46:00,
2013-05-07 05:51:00,53.2,49.1,29.76,WNW,283,0.0,4.0,86,0.00,,,0.00,Wunderground v.1.15,2013-05-07 09:51:00,
2013-05-07 05:56:00,53.0,48.9,29.76,WNW,283,0.0,4.0,86,0.00,,,0.00,Wunderground v.1.15,2013-05-07 09:56:00,
2013-05-07 06:01:00,53.1,49.3,29.76,WNW,283,0.0,4.0,87,0.00,,,0.00,Wunderground v.1.15,2013-05-07 10:01:00,
2013-05-07 06:11:00,53.5,49.4,29.76,WNW,283,1.0,1.0,86,0.00,,,0.00,Wunderground v.1.15,2013-05-07 10:11:00,
2013-05-07 06:16:00,53.5,49.4,29.77,WNW,283,1.0,4.0,86,0.00,,,0.00,Wunderground v.1.15,2013-05-07 10:16:00,
2013-05-07 06:21:00,53.5,49.4,29.77,WNW,283,1.0,1.0,86,0.00,,,0.00,Wunderground v.1.15,2013-05-07 10:21:00,
2013-05-07 06:26:00,53.4,49.3,29.77,WNW,283,1.0,3.0,86,0.00,,,0.00,Wunderground v.1.15,2013-05-07 10:26:00,
2013-05-07 06:31:00,53.5,49.4,29.77,WNW,283,2.0,6.0,86,0.00,,,0.00,Wunderground v.1.15,2013-05-07 10:31:00,
2013-05-07 06:36:00,53.7,49.6,29.77,WNW,283,2.0,6.0,86,0.00,,,0.00,Wunderground v.1.15,2013-05-07 10:36:00,
2013-05-07 06:46:00,54.1,50.0,29.77,WNW,283,2.0,4.0,86,0.00,,,0.00,Wunderground v.1.15,2013-05-07 10:46:00,
2013-05-07 06:51:00,54.4,50.3,29.77,WNW,283,2.0,6.0,86,0.00,,,0.00,Wunderground v.1.15,2013-05-07 10:51:00,
2013-05-07 06:56:00,54.7,50.3,29.77,WNW,287,3.0,6.0,85,0.00,,,0.00,Wunderground v.1.15,2013-05-07 10:56:00,
2013-05-07 07:01:00,54.9,50.5,29.77,WNW,284,2.0,2.0,85,0.00,,,0.00,Wunderground v.1.15,2013-05-07 11:01:00,
2013-05-07 07:06:00,55.1,50.7,29.78,West,274,2.0,7.0,85,0.00,,,0.00,Wunderground v.1.15,2013-05-07 11:06:00,
2013-05-07 07:11:00,55.4,50.6,29.78,West,271,3.0,3.0,84,0.00,,,0.00,Wunderground v.1.15,2013-05-07 11:11:00,
2013-05-07 07:16:00,55.6,50.8,29.78,West,271,4.0,4.0,84,0.00,,,0.00,Wunderground v.1.15,2013-05-07 11:16:00,
2013-05-07 07:21:00,55.7,51.3,29.78,West,271,3.0,4.0,85,0.00,,,0.00,Wunderground v.1.15,2013-05-07 11:21:00,
2013-05-07 07:26:00,56.0,51.2,29.78,West,271,3.0,4.0,84,0.00,,,0.00,Wunderground v.1.15,2013-05-07 11:26:00,
2013-05-07 07:31:00,56.2,51.1,29.78,West,271,2.0,2.0,83,0.00,,,0.00,Wunderground v.1.15,2013-05-07 11:31:00,
2013-05-07 07:36:00,56.5,51.4,29.78,West,271,1.0,4.0,83,0.00,,,0.00,Wunderground v.1.15,2013-05-07 11:36:00,
2013-05-07 07:46:00,56.5,51.4,29.78,West,271,0.0,2.0,83,0.00,,,0.00,Wunderground v.1.15,2013-05-07 11:46:00,
2013-05-07 07:51:00,56.8,51.7,29.78,West,271,1.0,4.0,83,0.00,,,0.00,Wunderground v.1.15,2013-05-07 11:51:00,
2013-05-07 07:56:00,57.2,51.8,29.78,West,271,2.0,4.0,82,0.00,,,0.00,Wunderground v.1.15,2013-05-07 11:56:00,
2013-05-07 08:01:00,57.9,52.4,29.79,West,271,3.0,5.0,82,0.00,,,0.00,Wunderground v.1.15,2013-05-07 12:01:00,
2013-05-07 08:06:00,58.3,52.2,29.79,West,271,3.0,5.0,80,0.00,,,0.00,Wunderground v.1.15,2013-05-07 12:06:00,
2013-05-07 08:11:00,58.6,52.1,29.79,West,271,3.0,4.0,79,0.00,,,0.00,Wunderground v.1.15,2013-05-07 12:11:00,
2013-05-07 08:21:00,59.3,52.4,29.79,West,271,2.0,5.0,78,0.00,,,0.00,Wunderground v.1.15,2013-05-07 12:21:00,
2013-05-07 08:26:00,59.8,52.6,29.79,WSW,254,3.0,5.0,77,0.00,,,0.00,Wunderground v.1.15,2013-05-07 12:26:00,
2013-05-07 08:31:00,60.1,52.1,29.79,WSW,253,5.0,5.0,75,0.00,,,0.00,Wunderground v.1.15,2013-05-07 12:31:00,
2013-05-07 08:36:00,60.4,52.4,29.79,WSW,256,5.0,7.0,75,0.00,,,0.00,Wunderground v.1.15,2013-05-07 12:36:00,
2013-05-07 08:41:00,60.7,52.7,29.79,WSW,257,5.0,7.0,75,0.00,,,0.00,Wunderground v.1.15,2013-05-07 12:41:00,
2013-05-07 08:51:00,61.3,52.6,29.79,West,264,5.0,5.0,73,0.00,,,0.00,Wunderground v.1.15,2013-05-07 12:51:00,
2013-05-07 08:56:00,61.7,53.0,29.78,WSW,248,3.0,5.0,73,0.00,,,0.00,Wunderground v.1.15,2013-05-07 12:56:00,
2013-05-07 09:01:00,62.1,52.2,29.79,WSW,254,3.0,5.0,70,0.00,,,0.00,Wunderground v.1.15,2013-05-07 13:01:00,
2013-05-07 09:06:00,62.5,52.6,29.79,WSW,254,3.0,5.0,70,0.00,,,0.00,Wunderground v.1.15,2013-05-07 13:06:00,
2013-05-07 09:11:00,62.8,52.1,29.79,WSW,253,3.0,4.0,68,0.00,,,0.00,Wunderground v.1.15,2013-05-07 13:11:00,
2013-05-07 09:16:00,63.3,53.0,29.79,WSW,256,3.0,5.0,69,0.00,,,0.00,Wunderground v.1.15,2013-05-07 13:16:00,
2013-05-07 09:26:00,64.0,52.4,29.79,WSW,254,3.0,4.0,66,0.00,,,0.00,Wunderground v.1.15,2013-05-07 13:26:00,
2013-05-07 09:31:00,64.3,52.7,29.79,West,259,3.0,5.0,66,0.00,,,0.00,Wunderground v.1.15,2013-05-07 13:31:00,
2013-05-07 09:36:00,64.5,52.5,29.78,WSW,246,4.0,5.0,65,0.00,,,0.00,Wunderground v.1.15,2013-05-07 13:36:00,
2013-05-07 09:41:00,64.8,53.2,29.79,WSW,250,4.0,5.0,66,0.00,,,0.00,Wunderground v.1.15,2013-05-07 13:41:00,
2013-05-07 09:46:00,65.1,52.2,29.78,WSW,245,4.0,5.0,63,0.00,,,0.00,Wunderground v.1.15,2013-05-07 13:46:00,
2013-05-07 09:56:00,65.7,52.3,29.78,WSW,250,2.0,4.0,62,0.00,,,0.00,Wunderground v.1.15,2013-05-07 13:56:00,
2013-05-07 10:01:00,65.8,52.0,29.78,WSW,250,1.0,4.0,61,0.00,,,0.00,Wunderground v.1.15,2013-05-07 14:01:00,
2013-05-07 10:06:00,65.6,51.3,29.78,WSW,254,1.0,4.0,60,0.00,,,0.00,Wunderground v.1.15,2013-05-07 14:06:00,
2013-05-07 10:11:00,66.1,51.8,29.79,WSW,258,1.0,4.0,60,0.00,,,0.00,Wunderground v.1.15,2013-05-07 14:11:00,
2013-05-07 10:16:00,66.3,51.5,29.78,WSW,258,1.0,4.0,59,0.00,,,0.00,Wunderground v.1.15,2013-05-07 14:16:00,
2013-05-07 10:21:00,66.6,52.7,29.78,WSW,258,2.0,4.0,61,0.00,,,0.00,Wunderground v.1.15,2013-05-07 14:21:00,
2013-05-07 10:31:00,67.6,51.8,29.78,WSW,242,1.0,4.0,57,0.00,,,0.00,Wunderground v.1.15,2013-05-07 14:31:00,
2013-05-07 10:36:00,67.9,51.6,29.78,WSW,241,2.0,4.0,56,0.00,,,0.00,Wunderground v.1.15,2013-05-07 14:36:00,
2013-05-07 10:41:00,68.4,51.6,29.78,SSE,155,1.0,4.0,55,0.00,,,0.00,Wunderground v.1.15,2013-05-07 14:41:00,
2013-05-07 10:46:00,68.6,52.3,29.78,South,169,1.0,4.0,56,0.00,,,0.00,Wunderground v.1.15,2013-05-07 14:46:00,
2013-05-07 10:51:00,68.7,51.9,29.78,SW,236,2.0,5.0,55,0.00,,,0.00,Wunderground v.1.15,2013-05-07 14:51:00,
2013-05-07 10:56:00,68.8,51.0,29.78,WSW,254,3.0,5.0,53,0.00,,,0.00,Wunderground v.1.15,2013-05-07 14:56:00,
2013-05-07 11:01:00,68.9,52.6,29.78,WSW,249,2.0,2.0,56,0.00,,,0.00,Wunderground v.1.15,2013-05-07 15:01:00,
2013-05-07 11:06:00,69.6,51.7,29.78,WSW,238,1.0,4.0,53,0.00,,,0.00,Wunderground v.1.15,2013-05-07 15:06:00,
2013-05-07 11:11:00,70.1,51.7,29.77,WSW,238,1.0,1.0,52,0.00,,,0.00,Wunderground v.1.15,2013-05-07 15:11:00,
2013-05-07 11:16:00,70.4,50.9,29.77,ESE,120,1.0,4.0,50,0.00,,,0.00,Wunderground v.1.15,2013-05-07 15:16:00,
2013-05-07 11:21:00,70.6,53.6,29.77,East,101,1.0,4.0,55,0.00,,,0.00,Wunderground v.1.15,2013-05-07 15:21:00,
2013-05-07 11:31:00,70.3,50.2,29.77,ESE,110,1.0,4.0,49,0.00,,,0.00,Wunderground v.1.15,2013-05-07 15:31:00,
2013-05-07 11:36:00,70.0,51.6,29.77,East,88,1.0,4.0,52,0.00,,,0.00,Wunderground v.1.15,2013-05-07 15:36:00,
2013-05-07 11:41:00,70.3,50.8,29.77,SW,229,2.0,4.0,50,0.00,,,0.00,Wunderground v.1.15,2013-05-07 15:41:00,
2013-05-07 11:46:00,70.8,50.7,29.76,SW,229,2.0,4.0,49,0.00,,,0.00,Wunderground v.1.15,2013-05-07 15:46:00,
2013-05-07 11:51:00,71.4,51.8,29.76,SW,231,2.0,4.0,50,0.00,,,0.00,Wunderground v.1.15,2013-05-07 15:51:00,
2013-05-07 11:56:00,71.2,49.9,29.76,NW,320,2.0,4.0,47,0.00,,,0.00,Wunderground v.1.15,2013-05-07 15:56:00,
2013-05-07 12:06:00,70.8,50.1,29.75,West,275,3.0,5.0,48,0.00,,,0.00,Wunderground v.1.15,2013-05-07 16:06:00,
2013-05-07 12:11:00,71.0,50.3,29.75,WNW,287,2.0,2.0,48,0.00,,,0.00,Wunderground v.1.15,2013-05-07 16:11:00,
2013-05-07 12:16:00,71.6,52.0,29.75,WSW,257,1.0,4.0,50,0.00,,,0.00,Wunderground v.1.15,2013-05-07 16:16:00,
2013-05-07 12:21:00,71.8,51.0,29.75,East,98,1.0,1.0,48,0.00,,,0.00,Wunderground v.1.15,2013-05-07 16:21:00,
2013-05-07 12:26:00,71.8,53.2,29.75,SW,215,1.0,2.0,52,0.00,,,0.00,Wunderground v.1.15,2013-05-07 16:26:00,
2013-05-07 12:36:00,70.8,50.7,29.75,SSW,208,2.0,5.0,49,0.00,,,0.00,Wunderground v.1.15,2013-05-07 16:36:00,
2013-05-07 12:41:00,70.5,49.3,29.75,SW,219,1.0,4.0,47,0.00,,,0.00,Wunderground v.1.15,2013-05-07 16:41:00,
2013-05-07 12:46:00,70.4,49.2,29.74,SW,221,2.0,5.0,47,0.00,,,0.00,Wunderground v.1.15,2013-05-07 16:46:00,
2013-05-07 12:51:00,71.0,49.7,29.74,SW,221,1.0,1.0,47,0.00,,,0.00,Wunderground v.1.15,2013-05-07 16:51:00,
2013-05-07 12:56:00,71.8,51.6,29.74,ESE,103,1.0,7.0,49,0.00,,,0.00,Wunderground v.1.15,2013-05-07 16:56:00,
2013-05-07 13:01:00,71.5,50.8,29.74,SSW,213,2.0,2.0,48,0.00,,,0.00,Wunderground v.1.15,2013-05-07 17:01:00,
2013-05-07 13:11:00,70.7,51.1,29.73,East,86,2.0,5.0,50,0.00,,,0.00,Wunderground v.1.15,2013-05-07 17:11:00,
2013-05-07 13:16:00,70.6,50.5,29.73,East,88,2.0,5.0,49,0.00,,,0.00,Wunderground v.1.15,2013-05-07 17:16:00,
2013-05-07 13:21:00,71.5,50.8,29.73,WSW,251,1.0,4.0,48,0.00,,,0.00,Wunderground v.1.15,2013-05-07 17:21:00,
2013-05-07 13:26:00,71.7,49.2,29.73,WSW,246,1.0,4.0,45,0.00,,,0.00,Wunderground v.1.15,2013-05-07 17:26:00,
2013-05-07 13:31:00,71.6,49.7,29.73,WSW,248,1.0,4.0,46,0.00,,,0.00,Wunderground v.1.15,2013-05-07 17:31:00,
2013-05-07 13:41:00,71.4,48.3,29.73,WSW,252,1.0,4.0,44,0.00,,,0.00,Wunderground v.1.15,2013-05-07 17:41:00,
2013-05-07 13:46:00,71.3,48.3,29.73,WSW,238,1.0,4.0,44,0.00,,,0.00,Wunderground v.1.15,2013-05-07 17:46:00,
2013-05-07 13:51:00,71.3,48.3,29.72,WSW,238,1.0,1.0,44,0.00,,,0.00,Wunderground v.1.15,2013-05-07 17:51:00,
2013-05-07 13:56:00,71.7,49.2,29.72,WSW,238,0.0,3.0,45,0.00,,,0.00,Wunderground v.1.15,2013-05-07 17:56:00,
2013-05-07 14:01:00,72.5,49.3,29.72,SE,146,1.0,4.0,44,0.00,,,0.00,Wunderground v.1.15,2013-05-07 18:01:00,
2013-05-07 14:06:00,73.4,50.8,29.72,SSW,213,1.0,4.0,45,0.00,,,0.00,Wunderground v.1.15,2013-05-07 18:06:00,
2013-05-07 14:11:00,73.3,48.2,29.72,SW,219,1.0,1.0,41,0.00,,,0.00,Wunderground v.1.15,2013-05-07 18:11:00,
2013-05-07 14:16:00,73.0,48.5,29.72,SW,227,0.0,3.0,42,0.00,,,0.00,Wunderground v.1.15,2013-05-07 18:16:00,
2013-05-07 14:21:00,73.7,49.2,29.71,WSW,238,1.0,4.0,42,0.00,,,0.00,Wunderground v.1.15,2013-05-07 18:21:00,
2013-05-07 14:26:00,74.4,47.1,29.71,East,98,2.0,4.0,38,0.00,,,0.00,Wunderground v.1.15,2013-05-07 18:26:00,
2013-05-07 14:31:00,74.4,46.4,29.71,SSE,151,2.0,2.0,37,0.00,,,0.00,Wunderground v.1.15,2013-05-07 18:31:00,
2013-05-07 14:36:00,74.4,45.7,29.71,SW,229,2.0,4.0,36,0.00,,,0.00,Wunderground v.1.15,2013-05-07 18:36:00,
2013-05-07 14:46:00,75.1,46.3,29.70,WSW,248,1.0,13.0,36,0.00,,,0.00,Wunderground v.1.15,2013-05-07 18:46:00,
2013-05-07 14:51:00,74.4,46.4,29.70,SW,232,4.0,5.0,37,0.00,,,0.00,Wunderground v.1.15,2013-05-07 18:51:00,
2013-05-07 14:56:00,73.8,47.3,29.70,SW,235,5.0,5.0,39,0.00,,,0.00,Wunderground v.1.15,2013-05-07 18:56:00,
2013-05-07 15:01:00,73.6,46.4,29.70,SW,232,3.0,3.0,38,0.00,,,0.00,Wunderground v.1.15,2013-05-07 19:01:00,
2013-05-07 15:06:00,74.2,49.6,29.70,ENE,58,1.0,4.0,42,0.00,,,0.00,Wunderground v.1.15,2013-05-07 19:06:00,
2013-05-07 15:16:00,75.8,48.4,29.69,WNW,284,1.0,13.0,38,0.00,,,0.00,Wunderground v.1.15,2013-05-07 19:16:00,
2013-05-07 15:21:00,75.7,46.1,29.69,SW,234,4.0,8.0,35,0.00,,,0.00,Wunderground v.1.15,2013-05-07 19:21:00,
2013-05-07 15:26:00,75.8,43.8,29.69,WSW,248,7.0,9.0,32,0.00,,,0.00,Wunderground v.1.15,2013-05-07 19:26:00,
2013-05-07 15:31:00,75.5,45.9,29.69,West,267,6.0,7.0,35,0.00,,,0.00,Wunderground v.1.15,2013-05-07 19:31:00,
2013-05-07 15:36:00,76.0,45.6,29.69,WSW,248,5.0,7.0,34,0.00,,,0.00,Wunderground v.1.15,2013-05-07 19:36:00,
2013-05-07 15:41:00,76.4,44.4,29.69,WSW,249,5.0,10.0,32,0.00,,,0.00,Wunderground v.1.15,2013-05-07 19:41:00,
2013-05-07 15:51:00,76.0,44.8,29.68,SW,223,8.0,9.0,33,0.00,,,0.00,Wunderground v.1.15,2013-05-07 19:51:00,
2013-05-07 15:56:00,75.5,45.2,29.68,WSW,241,7.0,9.0,34,0.00,,,0.00,Wunderground v.1.15,2013-05-07 19:56:00,
2013-05-07 16:01:00,75.5,45.2,29.68,WSW,244,5.0,5.0,34,0.00,,,0.00,Wunderground v.1.15,2013-05-07 20:01:00,
2013-05-07 16:06:00,75.8,44.6,29.68,SW,229,4.0,5.0,33,0.00,,,0.00,Wunderground v.1.15,2013-05-07 20:06:00,
2013-05-07 16:11:00,76.0,44.0,29.68,WSW,245,4.0,4.0,32,0.00,,,0.00,Wunderground v.1.15,2013-05-07 20:11:00,
2013-05-07 16:21:00,76.4,45.9,29.67,SW,227,2.0,4.0,34,0.00,,,0.00,Wunderground v.1.15,2013-05-07 20:21:00,
2013-05-07 16:26:00,76.3,45.9,29.67,SW,227,2.0,4.0,34,0.00,,,0.00,Wunderground v.1.15,2013-05-07 20:26:00,
2013-05-07 16:31:00,76.0,47.1,29.67,SW,232,1.0,1.0,36,0.00,,,0.00,Wunderground v.1.15,2013-05-07 20:31:00,
2013-05-07 16:36:00,75.1,46.3,29.67,SW,232,1.0,4.0,36,0.00,,,0.00,Wunderground v.1.15,2013-05-07 20:36:00,
2013-05-07 16:41:00,74.5,45.8,29.67,SW,232,0.0,4.0,36,0.00,,,0.00,Wunderground v.1.15,2013-05-07 20:41:00,
2013-05-07 16:46:00,75.0,49.0,29.67,South,185,1.0,4.0,40,0.00,,,0.00,Wunderground v.1.15,2013-05-07 20:46:00,
2013-05-07 16:56:00,76.1,47.2,29.67,ENE,63,1.0,4.0,36,0.00,,,0.00,Wunderground v.1.15,2013-05-07 20:56:00,
2013-05-07 17:01:00,76.2,46.5,29.66,West,267,1.0,4.0,35,0.00,,,0.00,Wunderground v.1.15,2013-05-07 21:01:00,
2013-05-07 17:06:00,76.2,45.0,29.66,SE,130,2.0,4.0,33,0.00,,,0.00,Wunderground v.1.15,2013-05-07 21:06:00,
2013-05-07 17:11:00,76.3,45.1,29.66,WNW,287,2.0,2.0,33,0.00,,,0.00,Wunderground v.1.15,2013-05-07 21:11:00,
2013-05-07 17:16:00,76.2,45.0,29.66,SW,228,2.0,4.0,33,0.00,,,0.00,Wunderground v.1.15,2013-05-07 21:16:00,
2013-05-07 17:26:00,76.6,46.1,29.66,NNE,24,1.0,4.0,34,0.00,,,0.00,Wunderground v.1.15,2013-05-07 21:26:00,
2013-05-07 17:31:00,76.5,45.2,29.66,WSW,242,2.0,2.0,33,0.00,,,0.00,Wunderground v.1.15,2013-05-07 21:31:00,
2013-05-07 17:36:00,76.6,45.3,29.66,SW,235,2.0,5.0,33,0.00,,,0.00,Wunderground v.1.15,2013-05-07 21:36:00,
2013-05-07 17:41:00,76.4,47.5,29.66,WSW,244,1.0,4.0,36,0.00,,,0.00,Wunderground v.1.15,2013-05-07 21:41:00,
2013-05-07 17:46:00,75.8,44.6,29.66,North,5,2.0,4.0,33,0.00,,,0.00,Wunderground v.1.15,2013-05-07 21:46:00,
2013-05-07 17:51:00,75.4,45.1,29.66,NE,42,2.0,2.0,34,0.00,,,0.00,Wunderground v.1.15,2013-05-07 21:51:00,
2013-05-07 17:56:00,75.0,43.9,29.66,WSW,245,2.0,5.0,33,0.00,,,0.00,Wunderground v.1.15,2013-05-07 21:56:00,
2013-05-07 18:01:00,74.6,42.8,29.66,WSW,243,3.0,4.0,32,0.00,,,0.00,Wunderground v.1.15,2013-05-07 22:01:00,
2013-05-07 18:06:00,74.4,44.2,29.66,WSW,240,3.0,7.0,34,0.00,,,0.00,Wunderground v.1.15,2013-05-07 22:06:00,
2013-05-07 18:11:00,74.1,44.7,29.66,SW,230,3.0,8.0,35,0.00,,,0.00,Wunderground v.1.15,2013-05-07 22:11:00,
2013-05-07 18:16:00,73.8,44.4,29.66,SW,234,4.0,8.0,35,0.00,,,0.00,Wunderground v.1.15,2013-05-07 22:16:00,
2013-05-07 18:21:00,73.6,45.0,29.66,SW,234,3.0,4.0,36,0.00,,,0.00,Wunderground v.1.15,2013-05-07 22:21:00,
2013-05-07 18:31:00,73.1,45.3,29.67,SW,235,2.0,4.0,37,0.00,,,0.00,Wunderground v.1.15,2013-05-07 22:31:00,
2013-05-07 18:36:00,72.8,45.7,29.66,WSW,246,3.0,4.0,38,0.00,,,0.00,Wunderground v.1.15,2013-05-07 22:36:00,
2013-05-07 18:41:00,72.6,45.5,29.66,WSW,246,4.0,7.0,38,0.00,,,0.00,Wunderground v.1.15,2013-05-07 22:41:00,
2013-05-07 18:46:00,72.4,46.0,29.66,WSW,247,4.0,7.0,39,0.00,,,0.00,Wunderground v.1.15,2013-05-07 22:46:00,
2013-05-07 18:51:00,72.4,46.0,29.67,WSW,247,3.0,3.0,39,0.00,,,0.00,Wunderground v.1.15,2013-05-07 22:51:00,
2013-05-07 19:01:00,72.3,47.3,29.67,WSW,247,2.0,2.0,41,0.00,,,0.00,Wunderground v.1.15,2013-05-07 23:01:00,
2013-05-07 19:06:00,72.1,47.1,29.67,WSW,247,1.0,4.0,41,0.00,,,0.00,Wunderground v.1.15,2013-05-07 23:06:00,
2013-05-07 19:11:00,71.7,47.4,29.67,WSW,247,0.0,4.0,42,0.00,,,0.00,Wunderground v.1.15,2013-05-07 23:11:00,
2013-05-07 19:16:00,71.3,47.0,29.67,WSW,247,0.0,4.0,42,0.00,,,0.00,Wunderground v.1.15,2013-05-07 23:16:00,
2013-05-07 19:21:00,70.9,47.9,29.67,WSW,247,0.0,4.0,44,0.00,,,0.00,Wunderground v.1.15,2013-05-07 23:21:00,
2013-05-07 19:26:00,70.5,46.9,29.68,WSW,247,1.0,4.0,43,0.00,,,0.00,Wunderground v.1.15,2013-05-07 23:26:00,
2013-05-07 19:36:00,70.3,46.7,29.68,WSW,254,2.0,3.0,43,0.00,,,0.00,Wunderground v.1.15,2013-05-07 23:36:00,
2013-05-07 19:41:00,70.1,47.8,29.68,WSW,254,3.0,3.0,45,0.00,,,0.00,Wunderground v.1.15,2013-05-07 23:41:00,
2013-05-07 19:46:00,69.8,47.5,29.68,WSW,254,2.0,4.0,45,0.00,,,0.00,Wunderground v.1.15,2013-05-07 23:46:00,
2013-05-07 19:51:00,69.5,47.2,29.68,WSW,254,0.0,4.0,45,0.00,,,0.00,Wunderground v.1.15,2013-05-07 23:51:00,
2013-05-07 19:56:00,69.2,47.5,29.68,WSW,254,0.0,4.0,46,0.00,,,0.00,Wunderground v.1.15,2013-05-07 23:56:00,
2013-05-07 20:06:00,68.7,47.1,29.68,WSW,254,0.0,4.0,46,0.00,,,0.00,Wunderground v.1.15,2013-05-08 00:06:00,
2013-05-07 20:11:00,68.5,48.0,29.68,WSW,254,0.0,4.0,48,0.00,,,0.00,Wunderground v.1.15,2013-05-08 00:11:00,
2013-05-07 20:16:00,68.1,47.1,29.68,WSW,254,0.0,4.0,47,0.00,,,0.00,Wunderground v.1.15,2013-05-08 00:16:00,
2013-05-07 20:21:00,68.0,47.0,29.68,WSW,254,0.0,4.0,47,0.00,,,0.00,Wunderground v.1.15,2013-05-08 00:21:00,
2013-05-07 20:26:00,68.1,48.2,29.69,WSW,254,0.0,4.0,49,0.00,,,0.00,Wunderground v.1.15,2013-05-08 00:26:00,
2013-05-07 20:31:00,67.9,46.9,29.69,WSW,254,0.0,4.0,47,0.00,,,0.00,Wunderground v.1.15,2013-05-08 00:31:00,
2013-05-07 20:41:00,67.6,47.2,29.69,WSW,254,0.0,4.0,48,0.00,,,0.00,Wunderground v.1.15,2013-05-08 00:41:00,
2013-05-07 20:46:00,67.4,47.6,29.69,WSW,254,0.0,4.0,49,0.00,,,0.00,Wunderground v.1.15,2013-05-08 00:46:00,
2013-05-07 20:51:00,67.3,48.0,29.69,WSW,254,0.0,4.0,50,0.00,,,0.00,Wunderground v.1.15,2013-05-08 00:51:00,
2013-05-07 20:56:00,67.2,47.9,29.70,WSW,254,0.0,4.0,50,0.00,,,0.00,Wunderground v.1.15,2013-05-08 00:56:00,
2013-05-07 21:01:00,67.1,47.8,29.70,WSW,254,0.0,4.0,50,0.00,,,0.00,Wunderground v.1.15,2013-05-08 01:01:00,
2013-05-07 21:06:00,66.8,48.1,29.70,WSW,254,0.0,4.0,51,0.00,,,0.00,Wunderground v.1.15,2013-05-08 01:06:00,
2013-05-07 21:11:00,66.7,47.5,29.70,WSW,254,0.0,4.0,50,0.00,,,0.00,Wunderground v.1.15,2013-05-08 01:11:00,
2013-05-07 21:16:00,66.6,47.9,29.71,WSW,254,0.0,4.0,51,0.00,,,0.00,Wunderground v.1.15,2013-05-08 01:16:00,
2013-05-07 21:21:00,66.5,48.3,29.71,WSW,254,1.0,5.0,52,0.00,,,0.00,Wunderground v.1.15,2013-05-08 01:21:00,
2013-05-07 21:26:00,66.5,47.8,29.71,West,261,2.0,5.0,51,0.00,,,0.00,Wunderground v.1.15,2013-05-08 01:26:00,
2013-05-07 21:31:00,66.6,47.4,29.71,West,269,4.0,7.0,50,0.00,,,0.00,Wunderground v.1.15,2013-05-08 01:31:00,
2013-05-07 21:41:00,66.7,47.5,29.71,West,263,5.0,5.0,50,0.00,,,0.00,Wunderground v.1.15,2013-05-08 01:41:00,
2013-05-07 21:46:00,66.5,47.8,29.72,West,263,3.0,5.0,51,0.00,,,0.00,Wunderground v.1.15,2013-05-08 01:46:00,
2013-05-07 21:51:00,66.2,47.5,29.72,West,263,1.0,1.0,51,0.00,,,0.00,Wunderground v.1.15,2013-05-08 01:51:00,
2013-05-07 21:56:00,65.8,47.7,29.72,West,263,0.0,4.0,52,0.00,,,0.00,Wunderground v.1.15,2013-05-08 01:56:00,
2013-05-07 22:01:00,65.5,47.9,29.72,West,263,0.0,4.0,53,0.00,,,0.00,Wunderground v.1.15,2013-05-08 02:01:00,
2013-05-07 22:06:00,65.1,48.0,29.72,West,263,0.0,4.0,54,0.00,,,0.00,Wunderground v.1.15,2013-05-08 02:06:00,
2013-05-07 22:16:00,64.5,48.0,29.72,West,263,0.0,4.0,55,0.00,,,0.00,Wunderground v.1.15,2013-05-08 02:16:00,
2013-05-07 22:21:00,64.3,47.8,29.72,West,263,0.0,4.0,55,0.00,,,0.00,Wunderground v.1.15,2013-05-08 02:21:00,
2013-05-07 22:26:00,64.1,48.1,29.72,West,263,0.0,4.0,56,0.00,,,0.00,Wunderground v.1.15,2013-05-08 02:26:00,
2013-05-07 22:31:00,63.9,47.9,29.72,West,263,0.0,4.0,56,0.00,,,0.00,Wunderground v.1.15,2013-05-08 02:31:00,
2013-05-07 22:36:00,63.6,48.1,29.72,West,263,0.0,4.0,57,0.00,,,0.00,Wunderground v.1.15,2013-05-08 02:36:00,
2013-05-07 22:46:00,63.3,48.3,29.72,West,263,1.0,2.0,58,0.00,,,0.00,Wunderground v.1.15,2013-05-08 02:46:00,
2013-05-07 22:51:00,63.2,48.2,29.72,West,271,3.0,5.0,58,0.00,,,0.00,Wunderground v.1.15,2013-05-08 02:51:00,
2013-05-07 22:56:00,63.0,48.4,29.72,West,277,3.0,5.0,59,0.00,,,0.00,Wunderground v.1.15,2013-05-08 02:56:00,
2013-05-07 23:01:00,63.0,48.4,29.72,West,275,3.0,3.0,59,0.00,,,0.00,Wunderground v.1.15,2013-05-08 03:01:00,
2013-05-07 23:06:00,62.8,48.7,29.72,West,275,2.0,4.0,60,0.00,,,0.00,Wunderground v.1.15,2013-05-08 03:06:00,
2013-05-07 23:11:00,62.7,48.6,29.72,West,259,3.0,4.0,60,0.00,,,0.00,Wunderground v.1.15,2013-05-08 03:11:00,
2013-05-07 23:21:00,62.9,49.2,29.72,WSW,250,5.0,5.0,61,0.00,,,0.00,Wunderground v.1.15,2013-05-08 03:21:00,
2013-05-07 23:26:00,62.9,49.2,29.72,WSW,250,6.0,9.0,61,0.00,,,0.00,Wunderground v.1.15,2013-05-08 03:26:00,
2013-05-07 23:31:00,62.8,49.6,29.73,WSW,255,6.0,10.0,62,0.00,,,0.00,Wunderground v.1.15,2013-05-08 03:31:00,
2013-05-07 23:36:00,62.9,49.7,29.73,West,259,8.0,10.0,62,0.00,,,0.00,Wunderground v.1.15,2013-05-08 03:36:00,
2013-05-07 23:41:00,62.9,49.7,29.73,West,265,9.0,9.0,62,0.00,,,0.00,Wunderground v.1.15,2013-05-08 03:41:00,
2013-05-07 23:51:00,62.5,49.7,29.73,WSW,254,8.0,8.0,63,0.00,,,0.00,Wunderground v.1.15,2013-05-08 03:51:00,
2013-05-07 23:56:00,62.5,50.2,29.73,WSW,253,8.0,11.0,64,0.00,,,0.00,Wunderground v.1.15,2013-05-08 03:56:00,